Regional Weather Roundup
Issued by NWS

Home | Current Version | Previous Version | Graphics & Text | Print | Product List | Glossary On
Versions: 1 2 3 4 5 6 7 8 9 10 11 12 13 14 15 16 17 18 19 20 21 22 23 24 25 26 27 28 29 30 31 32 33 34 35 36 37 38 39 40 41 42 43 44 45 46 47 48 49 50
000
ASUS43 KFSD 131310
RWRSD

WEATHER ROUNDUP FOR SOUTH DAKOTA
NATIONAL WEATHER SERVICE SIOUX FALLS SD
800 AM CDT SUN JUL 13 2014

NOTE: "FAIR" INDICATES FEW OR NO CLOUDS BELOW 12,000 FEET WITH NO
SIGNIFICANT WEATHER AND/OR OBSTRUCTIONS TO VISIBILITY.


SDZ001>005-009-010-012>017-131400-
NORTHWEST AND NORTH CENTRAL SOUTH DAKOTA

CITY           SKY/WX    TMP DP  RH WIND       PRES   REMARKS
BUFFALO          N/A     60  52  74 W9        30.13R
FAITH            N/A     64  55  72 W8        30.14R
MOBRIDGE       SUNNY     62  58  86 NW10      30.08R
$$

SDZ012>016-024>037-041>051-057-063-072>074-131400-
SOUTHWEST AND SOUTH CENTRAL SOUTH DAKOTA

CITY           SKY/WX    TMP DP  RH WIND       PRES   REMARKS
RAPID CTY ARPT MOSUNNY   64  55  72 NW5       30.21R
PIERRE         SUNNY     66  63  90 W6        30.09R
CUSTER         MOSUNNY   61  49  64 NW3       30.34R
ELLSWORTH AFB  MOSUNNY   63  54  73 NW6       30.21R
PHILIP         SUNNY     64  59  83 W7        30.15R
PINE RIDGE     SUNNY     60  58  92 CALM      30.22R
WINNER         FAIR      67  62  84 W5        30.12R
$$

SDZ004>011-016>023-039-040-131400-
NORTHEAST SOUTH DAKOTA

CITY           SKY/WX    TMP DP  RH WIND       PRES   REMARKS
ABERDEEN       SUNNY     61  57  87 W5        30.05R
WATERTOWN      SUNNY     64  61  90 SW6       30.05R
SISSETON         N/A     63  57  81 NW5       30.01R
$$

SDZ017-020-022-023-036>040-048>070-131400-
SOUTHEAST SOUTH DAKOTA

CITY           SKY/WX    TMP DP  RH WIND       PRES   REMARKS
SIOUX FALLS    MOSUNNY   68  62  81 W5        30.06R
HURON          MOSUNNY   65  61  87 NW7       30.06R
CHAMBERLAIN    SUNNY     65  63  91 W6        30.09S
MITCHELL       SUNNY     67  62  84 W5        30.08R
YANKTON        SUNNY     70  64  83 SW5       30.07S
$$

ABBREVIATIONS USED IN REMARKS
   TC - TEMPERATURE IN CELSIUS
  WCI - WIND CHILL INDEX
   HX - HEAT INDEX
  VSB - VISIBILITY



USA.gov is the U.S. government's official web portal to all federal, state and local government web resources and services.